Time,TemperatureF,DewpointF,PressureIn,WindDirection,WindDirectionDegrees,WindSpeedMPH,WindSpeedGustMPH,Humidity,HourlyPrecipIn,Conditions,Clouds,dailyrainin,SoftwareType,DateUTC
2013-02-10 00:01:00,31.8,17.1,30.25,NNW,337,8.3,-999.0,54,-99.99,,,0.00,Acu-Link.com,2013-02-10 05:01:00,
2013-02-10 00:16:00,31.3,16.6,30.26,East,90,7.3,-999.0,54,-99.99,,,0.00,Acu-Link.com,2013-02-10 05:16:00,
2013-02-10 00:31:00,31.3,14.8,30.26,WSW,247,6.3,-999.0,50,-99.99,,,0.00,Acu-Link.com,2013-02-10 05:31:00,
2013-02-10 00:46:00,30.9,14.5,30.27,NE,45,4.7,-999.0,50,-99.99,,,0.00,Acu-Link.com,2013-02-10 05:46:00,
2013-02-10 01:01:00,30.6,14.2,30.27,North,0,4.2,-999.0,50,-99.99,,,0.00,Acu-Link.com,2013-02-10 06:01:00,
2013-02-10 01:17:00,30.4,14.5,30.27,NNE,22,6.8,-999.0,51,-99.99,,,0.00,Acu-Link.com,2013-02-10 06:17:00,
2013-02-10 01:32:00,30.0,15.0,30.28,NE,45,6.3,-999.0,53,-99.99,,,0.00,Acu-Link.com,2013-02-10 06:32:00,
2013-02-10 01:47:00,29.8,13.5,30.29,East,90,8.3,-999.0,50,-99.99,,,0.00,Acu-Link.com,2013-02-10 06:47:00,
2013-02-10 02:02:00,29.5,13.2,30.30,NNW,337,4.7,-999.0,50,-99.99,,,0.00,Acu-Link.com,2013-02-10 07:02:00,
2013-02-10 02:17:00,29.1,13.3,30.30,NE,45,6.8,-999.0,51,-99.99,,,0.00,Acu-Link.com,2013-02-10 07:17:00,
2013-02-10 02:32:00,29.1,12.8,30.30,ENE,67,7.8,-999.0,50,-99.99,,,0.00,Acu-Link.com,2013-02-10 07:32:00,
2013-02-10 02:47:00,28.6,13.2,30.30,WNW,292,7.8,-999.0,52,-99.99,,,0.00,Acu-Link.com,2013-02-10 07:47:00,
2013-02-10 03:02:00,28.4,13.5,30.30,NNW,337,4.7,-999.0,53,-99.99,,,0.00,Acu-Link.com,2013-02-10 08:02:00,
2013-02-10 03:17:00,28.0,12.7,30.30,NNE,22,7.8,-999.0,52,-99.99,,,0.00,Acu-Link.com,2013-02-10 08:17:00,
2013-02-10 03:33:00,28.0,12.2,30.29,West,270,7.3,-999.0,51,-99.99,,,0.00,Acu-Link.com,2013-02-10 08:33:00,
2013-02-10 03:48:00,27.9,12.6,30.30,SW,225,6.3,-999.0,52,-99.99,,,0.00,Acu-Link.com,2013-02-10 08:48:00,
2013-02-10 04:19:00,27.7,12.4,30.30,ESE,112,6.3,-999.0,52,-99.99,,,0.00,Acu-Link.com,2013-02-10 09:19:00,
2013-02-10 04:34:00,27.5,12.6,30.30,WNW,292,4.7,-999.0,53,-99.99,,,0.00,Acu-Link.com,2013-02-10 09:34:00,
2013-02-10 04:50:00,27.3,12.5,30.31,North,0,5.3,-999.0,53,-99.99,,,0.00,Acu-Link.com,2013-02-10 09:50:00,
2013-02-10 05:05:00,27.0,12.6,30.30,SW,225,4.7,-999.0,54,-99.99,,,0.00,Acu-Link.com,2013-02-10 10:05:00,
2013-02-10 05:20:00,26.6,11.8,30.31,ENE,67,2.7,-999.0,53,-99.99,,,0.00,Acu-Link.com,2013-02-10 10:20:00,
2013-02-10 05:35:00,26.2,11.4,30.32,North,0,4.2,-999.0,53,-99.99,,,0.00,Acu-Link.com,2013-02-10 10:35:00,
2013-02-10 05:50:00,25.9,11.6,30.32,East,90,4.7,-999.0,54,-99.99,,,0.00,Acu-Link.com,2013-02-10 10:50:00,
2013-02-10 06:05:00,25.7,11.4,30.32,NE,45,3.7,-999.0,54,-99.99,,,0.00,Acu-Link.com,2013-02-10 11:05:00,
2013-02-10 06:20:00,25.5,11.6,30.29,North,0,4.2,-999.0,55,-99.99,,,0.00,Acu-Link.com,2013-02-10 11:20:00,
2013-02-10 06:35:00,25.5,12.0,30.29,North,0,3.7,-999.0,56,-99.99,,,0.00,Acu-Link.com,2013-02-10 11:35:00,
2013-02-10 06:51:00,25.2,11.7,30.28,NNW,337,4.7,-999.0,56,-99.99,,,0.00,Acu-Link.com,2013-02-10 11:51:00,
2013-02-10 07:06:00,25.5,12.0,30.28,North,0,2.2,-999.0,56,-99.99,,,0.00,Acu-Link.com,2013-02-10 12:06:00,
2013-02-10 07:21:00,25.9,12.4,30.29,NNE,22,5.8,-999.0,56,-99.99,,,0.00,Acu-Link.com,2013-02-10 12:21:00,
2013-02-10 07:36:00,28.4,13.5,30.30,North,0,2.7,-999.0,53,-99.99,,,0.00,Acu-Link.com,2013-02-10 12:36:00,
2013-02-10 07:51:00,29.3,13.0,30.30,NNE,22,2.7,-999.0,50,-99.99,,,0.00,Acu-Link.com,2013-02-10 12:51:00,
2013-02-10 08:06:00,27.9,12.1,30.31,NNE,22,2.7,-999.0,51,-99.99,,,0.00,Acu-Link.com,2013-02-10 13:06:00,
2013-02-10 08:21:00,27.5,13.1,30.30,East,90,1.7,-999.0,54,-99.99,,,0.00,Acu-Link.com,2013-02-10 13:21:00,
2013-02-10 08:36:00,27.7,13.7,30.31,North,0,2.7,-999.0,55,-99.99,,,0.00,Acu-Link.com,2013-02-10 13:36:00,
2013-02-10 08:51:00,28.6,14.9,30.31,ENE,67,3.7,-999.0,56,-99.99,,,0.00,Acu-Link.com,2013-02-10 13:51:00,
2013-02-10 09:07:00,29.5,15.8,30.33,ENE,67,2.7,-999.0,56,-99.99,,,0.00,Acu-Link.com,2013-02-10 14:07:00,
2013-02-10 09:22:00,30.4,15.8,30.34,ENE,67,3.2,-999.0,54,-99.99,,,0.00,Acu-Link.com,2013-02-10 14:22:00,
2013-02-10 09:37:00,31.1,15.6,30.35,ENE,67,2.2,-999.0,52,-99.99,,,0.00,Acu-Link.com,2013-02-10 14:37:00,
2013-02-10 09:52:00,32.0,15.9,30.35,NNE,22,2.7,-999.0,51,-99.99,,,0.00,Acu-Link.com,2013-02-10 14:52:00,
2013-02-10 10:07:00,33.1,16.5,30.35,WSW,247,1.7,-999.0,50,-99.99,,,0.00,Acu-Link.com,2013-02-10 15:07:00,
2013-02-10 10:22:00,34.7,17.5,30.35,NW,315,1.1,-999.0,49,-99.99,,,0.00,Acu-Link.com,2013-02-10 15:22:00,
2013-02-10 10:37:00,35.2,17.5,30.36,NE,45,3.2,-999.0,48,-99.99,,,0.00,Acu-Link.com,2013-02-10 15:37:00,
2013-02-10 10:52:00,34.2,16.6,30.34,NE,45,3.7,-999.0,48,-99.99,,,0.00,Acu-Link.com,2013-02-10 15:52:00,
2013-02-10 11:07:00,36.5,18.2,30.34,East,90,1.7,-999.0,47,-99.99,,,0.00,Acu-Link.com,2013-02-10 16:07:00,
2013-02-10 11:23:00,36.5,18.2,30.34,NNW,337,1.7,-999.0,47,-99.99,,,0.00,Acu-Link.com,2013-02-10 16:23:00,
2013-02-10 11:38:00,35.4,17.7,30.34,NNE,22,1.7,-999.0,48,-99.99,,,0.00,Acu-Link.com,2013-02-10 16:38:00,
2013-02-10 11:53:00,37.0,19.2,30.34,ESE,112,1.7,-999.0,48,-99.99,,,0.00,Acu-Link.com,2013-02-10 16:53:00,
2013-02-10 12:08:00,35.4,17.7,30.32,NE,45,2.2,-999.0,48,-99.99,,,0.00,Acu-Link.com,2013-02-10 17:08:00,
2013-02-10 12:23:00,34.2,18.0,30.30,NNE,22,1.1,-999.0,51,-99.99,,,0.00,Acu-Link.com,2013-02-10 17:23:00,
2013-02-10 12:38:00,34.9,19.1,30.26,South,180,2.2,-999.0,52,-99.99,,,0.00,Acu-Link.com,2013-02-10 17:38:00,
2013-02-10 12:53:00,37.0,20.1,30.26,SSE,157,2.7,-999.0,50,-99.99,,,0.00,Acu-Link.com,2013-02-10 17:53:00,
2013-02-10 13:08:00,37.9,20.0,30.26,NNW,337,2.2,-999.0,48,-99.99,,,0.00,Acu-Link.com,2013-02-10 18:08:00,
2013-02-10 13:23:00,41.2,22.0,30.26,SSE,157,2.7,-999.0,46,-99.99,,,0.00,Acu-Link.com,2013-02-10 18:23:00,
2013-02-10 13:39:00,39.2,21.2,30.26,ENE,67,3.7,-999.0,48,-99.99,,,0.00,Acu-Link.com,2013-02-10 18:39:00,
2013-02-10 13:54:00,42.1,22.3,30.25,SW,225,2.7,-999.0,45,-99.99,,,0.00,Acu-Link.com,2013-02-10 18:54:00,
2013-02-10 14:09:00,41.2,20.4,30.24,SW,225,3.2,-999.0,43,-99.99,,,0.00,Acu-Link.com,2013-02-10 19:09:00,
2013-02-10 14:24:00,40.3,22.2,30.22,NNE,22,1.1,-999.0,48,-99.99,,,0.00,Acu-Link.com,2013-02-10 19:24:00,
2013-02-10 14:39:00,37.6,22.0,30.23,ESE,112,1.7,-999.0,53,-99.99,,,0.00,Acu-Link.com,2013-02-10 19:39:00,
2013-02-10 14:54:00,37.0,23.2,30.22,NE,45,1.7,-999.0,57,-99.99,,,0.00,Acu-Link.com,2013-02-10 19:54:00,
2013-02-10 15:09:00,39.6,24.3,30.22,East,90,2.7,-999.0,54,-99.99,,,0.00,Acu-Link.com,2013-02-10 20:09:00,
2013-02-10 15:24:00,40.1,23.4,30.21,North,0,1.1,-999.0,51,-99.99,,,0.00,Acu-Link.com,2013-02-10 20:24:00,
2013-02-10 15:39:00,40.1,23.4,30.21,SE,135,2.2,-999.0,51,-99.99,,,0.00,Acu-Link.com,2013-02-10 20:39:00,
2013-02-10 15:55:00,39.7,23.5,30.21,NE,45,2.7,-999.0,52,-99.99,,,0.00,Acu-Link.com,2013-02-10 20:55:00,
2013-02-10 16:10:00,38.7,24.4,30.22,NE,45,2.2,-999.0,56,-99.99,,,0.00,Acu-Link.com,2013-02-10 21:10:00,
2013-02-10 16:25:00,38.7,24.4,30.22,East,90,2.2,-999.0,56,-99.99,,,0.00,Acu-Link.com,2013-02-10 21:25:00,
2013-02-10 16:41:00,38.1,24.2,30.22,ESE,112,2.2,-999.0,57,-99.99,,,0.00,Acu-Link.com,2013-02-10 21:41:00,
2013-02-10 17:08:00,35.2,22.7,30.22,ESE,112,3.2,-999.0,60,-99.99,,,0.00,Acu-Link.com,2013-02-10 22:08:00,
2013-02-10 17:23:00,33.4,22.6,30.22,South,180,4.2,-999.0,64,-99.99,,,0.00,Acu-Link.com,2013-02-10 22:23:00,
2013-02-10 17:38:00,33.4,23.6,30.22,ESE,112,2.2,-999.0,67,-99.99,,,0.00,Acu-Link.com,2013-02-10 22:38:00,
2013-02-10 17:53:00,31.8,22.8,30.22,ESE,112,2.2,-999.0,69,-99.99,,,0.00,Acu-Link.com,2013-02-10 22:53:00,
2013-02-10 18:08:00,31.6,23.3,30.22,East,90,2.2,-999.0,71,-99.99,,,0.00,Acu-Link.com,2013-02-10 23:08:00,
2013-02-10 18:23:00,32.0,24.0,30.19,West,270,2.2,-999.0,72,-99.99,,,0.00,Acu-Link.com,2013-02-10 23:23:00,
2013-02-10 18:44:00,32.2,24.2,30.19,East,90,4.2,-999.0,72,-99.99,,,0.00,Acu-Link.com,2013-02-10 23:44:00,
2013-02-10 19:00:00,33.6,25.2,30.18,SE,135,2.7,-999.0,71,-99.99,,,0.00,Acu-Link.com,2013-02-11 00:00:00,
2013-02-10 19:16:00,33.8,25.4,30.19,SSW,202,1.7,-999.0,71,-99.99,,,0.00,Acu-Link.com,2013-02-11 00:16:00,
2013-02-10 19:31:00,34.0,25.6,30.19,South,180,2.2,-999.0,71,-99.99,,,0.00,Acu-Link.com,2013-02-11 00:31:00,
2013-02-10 19:46:00,33.8,25.4,30.20,SW,225,4.2,-999.0,71,-99.99,,,0.00,Acu-Link.com,2013-02-11 00:46:00,
2013-02-10 20:01:00,34.2,25.8,30.19,WSW,247,2.7,-999.0,71,-99.99,,,0.00,Acu-Link.com,2013-02-11 01:01:00,
2013-02-10 20:18:00,34.2,25.8,30.20,South,180,3.2,-999.0,71,-99.99,,,0.00,Acu-Link.com,2013-02-11 01:18:00,
2013-02-10 20:33:00,34.3,25.9,30.20,South,180,3.2,-999.0,71,-99.99,,,0.00,Acu-Link.com,2013-02-11 01:33:00,
2013-02-10 20:48:00,34.5,26.1,30.20,SSW,202,2.7,-999.0,71,-99.99,,,0.00,Acu-Link.com,2013-02-11 01:48:00,
2013-02-10 21:03:00,34.9,26.5,30.20,SSW,202,3.7,-999.0,71,-99.99,,,0.00,Acu-Link.com,2013-02-11 02:03:00,
2013-02-10 21:19:00,34.9,26.5,30.19,SSW,202,3.2,-999.0,71,-99.99,,,0.00,Acu-Link.com,2013-02-11 02:19:00,
2013-02-10 21:34:00,35.1,27.0,30.19,SSW,202,2.2,-999.0,72,-99.99,,,0.00,Acu-Link.com,2013-02-11 02:34:00,
2013-02-10 21:49:00,35.2,27.1,30.19,SSW,202,3.7,-999.0,72,-99.99,,,0.00,Acu-Link.com,2013-02-11 02:49:00,
2013-02-10 22:04:00,35.6,27.8,30.18,West,270,3.2,-999.0,73,-99.99,,,0.00,Acu-Link.com,2013-02-11 03:04:00,
2013-02-10 22:19:00,35.6,27.8,30.16,South,180,2.2,-999.0,73,-99.99,,,0.00,Acu-Link.com,2013-02-11 03:19:00,
2013-02-10 22:34:00,35.8,28.3,30.16,SSW,202,2.7,-999.0,74,-99.99,,,0.00,Acu-Link.com,2013-02-11 03:34:00,
2013-02-10 22:50:00,36.5,29.0,30.16,SW,225,3.7,-999.0,74,-99.99,,,0.00,Acu-Link.com,2013-02-11 03:50:00,
2013-02-10 23:05:00,36.9,29.7,30.15,SSW,202,3.7,-999.0,75,-99.99,,,0.00,Acu-Link.com,2013-02-11 04:05:00,
2013-02-10 23:20:00,36.9,29.7,30.15,SSW,202,1.7,-999.0,75,-99.99,,,0.00,Acu-Link.com,2013-02-11 04:20:00,
2013-02-10 23:36:00,37.4,30.5,30.14,SSW,202,3.7,-999.0,76,-99.99,,,0.00,Acu-Link.com,2013-02-11 04:36:00,
2013-02-10 23:51:00,37.9,31.3,30.14,SW,225,3.7,-999.0,77,-99.99,,,0.00,Acu-Link.com,2013-02-11 04:51:00,